Showing default

CALSPHERE 1, 900

Orbit data source: Space-Track

CALSPHERE 1, 900 is a payload satellite owned by NRL (US) in LEO that was launched on Tue, 06 Oct 1964 UTC via a THOR ABLESTAR launch vehicle from the Air Force Western Test Range (AFWTR). Payload-class satellites include a variety of spacecraft equipped with specific instruments for various scientific and technological missions. These include communications satellites like Starlink; space stations such as the ISS; scientific satellites like the Hubble; Earth observation satellites from companies like Planet Labs, Umbra, and HawkEye 360; GPS; miniature CubeSats for education and research; and military/defense satellites.

Loading next visibility...
Identifier
900, 1964-063C
Orbit
LEO
Country
Flag of USUS
Related business
Manufacturer
NRL
Mission
Operational spacecraft
Bus & Motor
NRL 14", Unknown motor
Mass
1 kg wet, 1 kg dry
Launch date (UTC)
1964-10-06 (61 years ago)
Launch vehicle
THOR ABLESTAR
Launch site
Air Force Western Test Range (AFWTR)
Object type
Payload
Rocket body
Debris
Shape & HBR
Unknown
Radar Cross Section
Small (<0.1 m²)

Expand to show TLE details & history
Last TLE update: 6 hours ago

TLE from 6 hours ago
0 CALSPHERE 1
1 00900U 64063C   25299.30305163  .00000995  00000-0  10097-2 0  9998
2 00900  90.2190  66.3542 0023864 279.3641 112.2193 13.76268876 39255
Epoch: 2025-10-26T07:16Z
TLE epoch observation values (Epoch: 2025-10-26T07:16:23.660Z)
Latitude
31.89137°
Longitude
-77.80113°
Altitude
987.991 km
Speed
7.357 km/s
True Right ascension
04h 24m 52s
True Declination
31° 44' 32"
Sunlit
Object was in full shadow at epoch
Visualization orbit readout
Latitude
Unknown
Longitude
Unknown
Altitude
Unknown
Speed
Unknown
Apparent Right ascension
Unknown
Apparent Declination
Unknown
Sunlit
N/A
Visualization observer readout
Local Sidereal Time
08:59:28
Azimuth
Unknown
Elevation
Unknown
Doppler factor
Unknown
Orbital elements
Apogee altitude
991.708 km
Perigee altitude
956.617 km
Semi-major axis
7,352.299 km
Eccentricity
0.00239
Inclination
90.219°
RAAN
66.3542°
Arg. of periapsis
279.3641°
True anomaly
112.47217°
Mean anomaly
112.2193°
Eccentric anomaly
112.34576°
Mean motion
3.44277 °/min
Orbital period
104.57 mins
BSTAR
0.0010097
Loading maneuver chart data...
Computing Atmospheric mass density...
Loading historical data...
Loading historical data...
Loading historical data...
Loading historical data...
Loading historical data...
Loading historical data...
Loading historical data...

Documentation

Showing up to 5 results
|